Wind_Speed
8 8 8 8 8 8 8 7 7 7 6 6 5 5 5 5 5 5 5 5 5 6 6 7 7 9 9 10 11 11 13 13 15 15 10 6 4 4 4 6 7 8 8 8 8 6 6 6 7 7 7 6 4 4 4 4 6 5 2 2 2 2 4 5 7 7 4 3 4 4 5 2 6 10 9 8 9 14 20 23 22 22 25 27 28 27 27 27
9 9 9 8 8 8 8 8 8 7 7 7 7 6 6 6 6 6 6 7 7 7 8 9 9 10 11 12 12 14 15 15 18 11 3 7 7 6 5 3 7 11 10 10 9 7 7 7 8 9 8 7 4 4 5 5 7 5 2 2 4 5 6 7 9 9 6 6 6 8 10 7 9 10 8 5 8 11 15 21 21 23 28 26 24 23 24 25
9 9 9 9 9 9 9 8 8 8 8 8 8 8 7 8 8 8 8 8 9 9 9 10 11 12 12 13 14 15 15 18 18 5 4 10 11 6 6 3 5 9 12 11 10 9 9 8 8 9 10 8 5 5 5 6 7 5 3 2 6 7 6 9 12 13 13 12 8 11 13 10 14 14 6 4 9 10 12 19 18 21 27 23 18 16 19 22
10 10 10 10 10 10 10 9 9 9 9 9 9 9 9 9 9 10 10 10 11 11 11 12 12 13 14 14 15 16 17 18 11 7 2 13 13 7 5 4 4 5 9 12 12 11 10 9 9 9 9 6 4 4 5 7 6 5 6 4 6 5 4 10 15 17 17 15 12 12 11 12 16 13 8 5 5 7 17 25 22 23 26 25 22 19 20 23
11 11 11 10 11 11 11 11 10 10 10 10 10 11 11 11 11 12 12 12 13 13 13 13 14 15 16 16 16 16 15 11 2 7 6 16 13 9 5 4 5 4 6 10 13 13 11 10 9 8 8 4 4 3 4 10 9 4 8 11 9 6 4 9 11 13 13 12 12 9 8 13 14 12 12 9 6 12 24 31 29 31 30 28 28 26 26 27
12 12 12 12 12 12 12 12 12 12 12 12 12 12 12 12 13 13 13 14 14 15 15 15 16 16 17 17 17 17 10 4 5 8 14 17 13 9 6 6 7 6 5 7 11 12 11 10 9 8 6 2 5 6 5 11 11 5 7 11 15 13 10 12 10 10 12 10 10 9 12 18 13 13 15 14 18 29 38 37 36 38 35 31 31 31 32 30
13 13 13 13 13 13 13 13 13 13 13 13 13 13 14 14 14 15 15 15 15 16 16 16 17 17 18 18 19 17 8 9 16 16 16 13 9 7 7 10 10 9 7 7 9 11 12 11 12 9 4 1 5 7 6 8 11 6 4 6 13 16 17 20 16 13 15 14 17 16 17 22 15 11 13 15 28 40 42 40 39 39 36 34 33 32 31 28
13 13 13 14 14 14 15 15 15 15 15 15 15 15 15 16 16 16 16 16 17 17 17 17 18 18 19 19 19 14 11 16 18 14 11 6 6 8 11 13 12 11 9 9 9 10 12 13 15 10 4 4 6 6 5 5 6 7 8 8 8 12 17 21 18 17 18 20 23 18 17 28 26 15 14 27 41 44 39 37 36 34 33 32 32 30 27 25
13 14 14 14 14 15 15 16 16 16 16 17 17 17 17 18 18 18 18 18 19 18 19 19 19 20 19 20 19 13 16 20 15 11 10 8 11 14 16 15 14 14 12 10 9 10 12 13 15 13 8 7 7 6 6 5 5 9 12 10 8 12 17 18 19 19 19 22 21 11 15 30 28 13 15 36 43 35 30 30 29 28 29 31 30 29 27 27
14 15 15 15 15 15 16 16 17 17 18 18 19 19 19 20 20 20 20 20 20 20 21 20 20 20 19 22 17 11 18 19 13 14 13 14 17 18 19 18 17 17 14 12 11 12 13 12 11 12 11 7 6 6 6 6 5 7 8 10 14 17 20 18 17 20 17 22 22 12 13 25 21 5 11 36 36 23 24 27 29 28 30 32 32 32 30 30
15 15 15 16 16 16 17 17 18 18 19 19 20 21 21 22 22 22 22 22 22 22 22 21 21 21 20 22 17 15 23 22 18 20 18 19 21 22 22 20 20 18 15 13 12 12 12 12 9 8 7 5 4 5 7 10 8 7 5 9 14 15 19 16 14 21 16 14 18 15 11 18 14 3 17 39 33 23 26 29 31 30 31 32 31 32 31 31
16 16 16 16 17 17 17 18 19 19 20 20 21 22 22 24 24 24 24 23 23 22 23 21 21 21 19 22 26 26 28 25 23 23 21 22 22 23 23 21 21 18 15 13 11 11 10 13 13 10 6 3 2 1 5 8 6 7 4 5 10 9 14 14 13 17 12 6 7 9 5 10 7 11 28 39 30 24 24 25 31 31 32 31 28 28 29 29
15 15 15 16 16 17 17 18 18 19 19 20 21 21 22 23 23 23 23 22 22 22 22 21 21 21 18 21 30 30 26 25 23 21 21 22 23 24 24 23 21 17 15 13 12 12 12 13 14 14 10 5 2 3 5 3 2 6 2 0 6 6 8 9 7 6 5 5 6 9 3 7 7 19 34 34 24 20 20 24 30 31 31 29 28 29 30 32
13 13 13 14 14 14 15 15 16 16 16 17 18 19 20 20 21 21 21 20 20 20 20 20 20 19 16 21 29 28 26 25 23 22 21 22 23 25 25 23 20 17 14 13 13 13 12 11 11 12 11 10 7 7 6 4 2 3 2 0 2 3 6 6 1 3 2 4 12 9 5 8 8 21 33 31 23 17 18 25 28 29 32 33 34 35 37 39
9 10 10 10 11 11 11 12 12 13 13 15 15 17 18 18 18 18 18 18 17 17 18 17 18 15 13 20 26 24 24 22 19 18 18 19 21 23 23 20 17 15 12 12 13 12 11 10 11 9 7 9 9 5 4 4 3 2 2 4 1 3 5 9 6 6 7 5 11 9 5 8 9 19 30 25 18 15 17 23 27 33 37 39 41 41 42 44
6 7 7 8 8 9 9 10 10 11 12 13 14 15 16 16 17 17 17 16 15 15 15 14 15 12 8 15 20 20 21 20 18 17 17 18 18 20 20 17 13 11 10 11 11 11 10 9 10 8 5 5 5 2 2 3 4 2 2 5 4 5 4 6 9 9 9 3 6 8 6 6 6 14 23 20 18 20 23 28 33 39 42 42 43 42 45 46
5 5 6 6 7 8 9 9 10 11 11 13 14 14 15 16 15 15 14 14 13 12 11 10 9 8 9 14 18 19 19 17 15 15 14 15 16 17 17 15 11 9 9 10 10 9 10 10 7 4 3 1 3 3 2 2 4 3 2 4 4 5 4 3 7 10 5 4 6 7 7 11 11 12 23 29 29 25 26 34 36 37 40 42 44 44 45 45
4 5 6 6 6 7 8 10 11 11 11 13 14 14 14 13 12 13 12 10 8 5 5 7 5 2 8 13 15 15 15 14 13 13 14 14 14 13 13 12 10 9 8 8 9 10 10 7 4 1 1 1 2 4 2 6 8 6 5 5 4 3 4 5 6 6 6 5 6 4 8 15 14 14 23 33 34 24 25 35 37 36 39 42 44 44 44 44
4 5 5 6 6 7 8 9 11 12 12 11 13 14 11 9 10 9 6 5 4 3 3 6 7 3 6 11 14 16 17 17 18 17 17 15 12 10 9 9 9 11 10 6 6 11 10 4 4 2 2 6 6 7 11 13 9 6 4 4 6 6 6 6 8 7 5 10 10 9 16 17 14 14 16 26 31 25 26 34 37 36 38 40 40 41 43 45
4 5 6 7 7 7 7 9 10 12 14 13 14 13 8 9 8 3 5 9 10 10 11 13 14 16 18 22 23 22 21 21 21 18 16 13 9 7 8 9 10 10 7 5 5 7 8 4 3 6 9 11 11 11 13 9 3 2 2 4 6 6 8 8 10 9 2 5 9 10 19 19 15 13 13 24 28 23 25 30 32 35 38 38 36 41 44 44
6 6 7 7 8 8 8 9 10 12 14 15 16 12 8 9 5 4 11 16 16 16 18 21 22 25 27 27 27 24 21 19 19 17 14 11 7 6 9 10 8 4 3 4 4 2 5 5 7 11 12 8 7 6 6 6 5 4 5 6 6 5 10 10 9 10 1 2 5 6 16 19 15 14 14 21 21 21 26 22 24 32 36 38 38 42 42 40
9 9 8 9 10 9 9 10 10 12 13 13 15 12 10 11 8 9 10 11 18 21 20 22 25 29 29 29 31 30 22 15 15 15 11 9 10 8 8 8 5 2 2 3 2 1 2 4 10 15 9 1 2 3 2 4 5 6 4 5 6 3 8 9 6 7 2 2 6 7 15 16 14 17 18 20 19 24 29 22 24 32 34 39 39 37 36 34
12 11 11 11 11 11 11 10 11 11 12 11 13 12 12 14 13 15 11 7 15 20 20 23 25 27 28 27 29 28 21 15 14 13 11 10 11 9 8 8 4 2 2 4 5 4 4 5 12 16 9 3 3 2 5 2 4 6 4 4 7 3 4 6 4 5 3 3 6 10 16 13 12 15 15 17 19 24 31 29 29 34 37 40 38 32 30 28
15 14 13 12 12 13 12 11 11 11 10 10 12 12 12 14 15 17 13 6 7 11 18 21 17 18 20 19 18 17 15 14 11 9 11 13 11 7 7 7 4 3 5 8 10 9 7 4 5 6 6 8 7 3 2 4 6 6 6 5 9 8 8 9 5 6 6 4 4 7 12 10 4 6 5 7 9 15 24 26 29 35 33 33 34 29 22 21
16 14 15 15 14 14 14 13 11 9 9 10 11 12 13 15 15 17 12 4 4 7 10 10 6 6 9 8 7 8 8 9 10 8 8 13 14 7 3 6 5 3 7 8 7 9 8 6 3 3 4 6 6 5 5 7 7 5 5 10 14 13 10 11 8 7 5 4 3 5 8 7 1 1 4 4 3 6 12 16 22 22 14 17 23 18 15 17
18 16 17 16 14 14 14 12 9 8 9 10 10 12 14 13 14 16 9 2 3 4 3 3 2 0 2 1 1 6 4 3 6 9 10 12 14 7 2 4 3 2 5 5 3 4 4 5 2 3 4 6 5 6 6 8 5 6 5 11 13 11 9 10 7 3 1 3 2 3 1 8 4 1 6 4 2 7 11 12 13 11 13 16 16 13 14 15
18 18 17 15 13 13 13 10 8 8 9 9 9 11 12 11 13 13 6 3 3 2 2 2 2 0 1 1 5 7 3 1 1 4 11 12 11 8 3 2 1 1 4 3 2 3 2 1 3 5 5 6 5 6 7 10 5 6 5 7 9 8 8 6 4 3 4 3 3 1 4 6 9 4 4 2 4 9 13 11 9 10 17 20 11 12 15 17
19 19 17 15 14 14 13 13 11 9 9 8 8 9 10 10 11 8 3 2 4 1 3 1 2 3 1 5 7 4 2 0 2 1 8 11 10 7 3 5 6 4 4 5 3 3 3 2 2 5 5 3 6 5 7 12 6 6 3 5 5 5 4 4 4 4 2 3 4 2 4 3 9 4 2 1 4 8 11 10 10 9 15 18 8 13 18 19
19 19 17 15 15 16 15 15 13 10 10 8 8 8 8 8 8 5 3 2 2 2 2 1 2 2 2 5 4 1 2 2 2 3 5 8 10 6 2 5 6 4 4 5 5 5 1 2 5 7 5 5 7 4 8 13 7 4 5 6 4 3 3 3 3 3 2 3 4 4 4 3 10 5 3 2 2 5 7 7 8 8 7 8 9 13 17 18
18 18 17 16 16 17 17 15 13 11 10 8 8 7 6 5 3 2 3 3 2 1 1 1 1 1 2 3 1 2 1 1 3 6 4 4 8 6 1 1 2 3 1 2 4 7 3 2 2 5 6 6 4 1 3 8 5 5 7 5 5 4 4 3 1 3 1 5 5 9 10 5 6 4 4 3 3 5 4 4 6 8 5 10 12 13 15 18
17 17 16 16 16 16 16 16 14 12 10 8 8 7 4 3 2 2 6 2 2 2 1 1 2 1 3 2 1 1 1 1 3 6 3 3 4 2 1 0 1 2 3 4 4 4 1 3 1 5 9 5 5 3 2 1 3 4 4 3 3 3 3 4 4 3 1 6 5 8 10 8 7 5 0 4 6 5 3 3 5 9 12 7 11 15 17 20
17 17 15 15 16 16 16 15 13 12 10 7 8 5 1 2 1 4 3 3 3 2 1 1 2 2 2 1 1 2 1 1 3 4 3 2 3 3 3 4 3 1 4 2 3 4 1 5 3 2 6 7 5 1 2 3 2 3 3 3 0 3 3 3 3 0 3 7 4 2 3 5 9 6 4 10 13 8 5 7 9 9 16 16 11 15 17 22
19 19 17 16 16 16 16 15 14 12 10 8 7 3 3 1 4 2 1 2 2 1 1 1 0 2 3 1 2 2 0 2 4 3 2 3 2 3 5 5 5 3 4 2 1 3 3 5 2 1 4 8 9 4 2 1 3 5 4 4 3 2 2 3 3 2 4 5 4 2 2 4 7 5 7 13 13 9 2 6 9 8 13 12 10 15 19 24
22 22 21 19 17 16 15 15 14 12 11 9 5 3 2 5 4 2 2 5 3 2 1 2 2 2 1 2 4 3 2 2 3 3 2 3 1 3 5 5 5 3 1 0 1 2 3 7 4 5 2 7 10 7 4 4 4 5 3 3 3 3 4 4 3 4 4 3 3 2 2 4 4 3 5 9 9 10 9 8 9 10 12 4 11 17 21 23
25 24 23 22 20 18 16 15 15 13 12 9 6 3 6 6 1 1 4 5 3 3 3 0 1 3 2 3 3 2 5 4 2 3 2 3 3 3 3 4 5 5 3 1 2 2 3 8 6 4 2 9 8 4 5 5 2 3 3 3 3 3 4 3 3 4 2 2 3 2 3 5 4 6 10 9 8 10 10 6 4 5 3 8 15 20 22 23
25 25 24 25 23 19 16 15 15 15 14 11 5 5 8 4 3 4 3 2 2 1 2 3 0 2 4 2 2 1 3 3 0 1 2 3 3 4 4 3 6 9 7 4 2 2 2 6 4 1 0 6 8 5 4 4 3 1 2 3 4 3 4 2 3 1 2 3 4 3 5 7 6 10 9 2 2 4 6 5 4 7 12 16 19 24 24 24
22 23 24 25 23 19 17 15 14 17 17 11 4 7 5 3 7 7 3 2 2 2 2 2 2 3 3 3 2 2 1 2 1 1 2 2 3 4 4 4 6 12 11 6 2 3 4 6 4 4 3 5 6 4 1 2 5 4 3 5 2 2 2 1 1 1 1 6 5 3 8 9 6 7 5 4 3 3 6 6 5 8 15 19 22 25 26 26
18 18 20 21 19 17 17 15 15 19 17 8 8 10 4 3 7 7 5 3 1 1 2 3 4 2 3 4 3 2 3 3 2 2 3 3 3 4 4 4 5 9 10 4 1 3 3 5 6 4 6 4 3 2 2 2 4 4 2 2 2 2 3 1 2 2 3 6 4 4 9 8 6 7 8 7 6 1 3 6 8 11 16 20 22 24 26 28
13 12 12 11 12 16 18 16 18 22 15 5 9 10 4 4 7 8 8 4 1 1 2 5 4 2 3 4 3 3 3 4 3 2 3 3 4 5 5 3 3 3 5 5 3 2 2 4 5 0 2 1 3 1 4 3 2 1 1 2 1 3 3 2 2 2 3 6 4 5 7 6 5 8 11 11 5 1 4 7 9 11 15 19 22 23 25 27
7 5 4 5 7 12 18 20 22 20 9 5 9 6 1 3 5 8 11 8 3 3 4 4 4 4 5 3 4 3 2 4 4 3 3 3 4 4 3 3 3 2 1 2 2 1 1 4 6 1 2 1 2 4 6 7 4 2 1 3 2 2 1 2 2 2 4 7 7 7 8 6 5 5 7 6 3 6 7 7 7 10 15 18 21 22 22 25
7 2 2 6 6 11 22 21 16 11 4 5 8 5 3 4 3 4 9 11 9 7 5 4 4 5 5 3 3 2 1 3 4 4 4 4 4 4 3 3 5 4 3 3 0 2 1 3 6 4 3 4 6 6 6 8 6 5 5 5 6 5 3 4 6 5 5 6 6 8 10 7 3 4 6 4 6 7 7 8 7 11 15 17 20 23 23 24
9 2 2 7 5 14 24 15 7 6 4 5 6 4 4 4 4 3 5 7 8 6 5 3 3 4 4 5 6 3 3 4 4 5 5 5 7 7 4 3 3 5 4 1 2 4 3 1 3 6 6 7 9 6 4 5 3 2 3 4 5 5 5 6 8 5 4 5 4 7 9 5 3 6 8 6 8 9 11 12 9 11 16 18 21 23 24 25
8 4 6 7 7 18 21 7 5 6 3 5 6 6 5 4 2 2 2 3 4 4 3 2 3 5 5 5 6 5 4 4 6 8 6 5 7 5 5 6 2 1 0 2 3 1 3 2 3 6 5 5 8 7 0 3 1 2 3 3 4 4 5 7 6 3 5 6 5 8 9 3 3 5 3 9 11 11 15 15 12 13 18 20 22 23 24 24
7 6 8 10 15 22 16 4 5 6 4 6 6 7 9 7 5 6 3 2 3 2 1 1 3 5 4 3 2 3 4 4 6 8 5 3 4 3 7 8 5 2 1 1 3 3 1 1 2 4 4 3 5 6 3 2 0 2 4 4 4 5 7 6 4 2 4 7 9 11 9 4 1 1 7 11 9 9 11 13 14 15 17 20 22 23 23 23
4 5 7 12 20 21 10 2 3 4 5 6 6 7 8 7 9 12 9 6 7 6 2 3 3 3 2 1 1 2 4 4 3 4 2 2 4 3 7 10 7 3 2 2 3 4 3 2 1 2 5 5 5 5 2 0 1 1 2 3 2 4 6 6 5 5 5 8 10 10 9 6 5 3 5 7 6 6 6 9 13 14 15 17 19 20 22 23
3 2 4 8 15 15 9 3 2 3 3 4 5 6 8 9 8 9 8 9 12 11 8 7 4 2 2 2 3 6 5 5 5 3 2 2 4 2 4 6 6 3 2 1 3 2 0 2 4 5 7 7 7 7 3 2 2 3 4 6 5 4 5 4 5 6 6 8 10 10 11 11 9 7 6 4 4 5 4 5 8 11 13 15 17 18 19 21
1 1 2 2 6 9 8 6 3 3 2 1 2 4 7 9 7 5 6 6 5 5 6 6 4 4 4 5 5 6 6 6 6 4 5 5 4 3 3 2 4 4 2 2 2 2 2 3 6 10 11 9 9 9 6 4 4 5 6 8 8 7 7 8 10 10 7 8 7 7 9 10 8 7 6 3 2 2 3 3 4 7 9 12 15 17 19 20
2 1 3 3 2 3 4 4 3 3 3 2 1 3 4 5 4 3 3 2 2 1 1 3 3 5 7 6 5 3 3 4 4 3 4 3 2 3 4 1 4 8 5 1 3 2 3 4 7 9 11 10 9 8 5 4 4 5 6 7 8 8 11 13 14 12 9 9 9 8 11 15 14 8 4 2 1 2 4 3 3 4 5 8 11 14 16 19
1 1 0 1 1 0 0 1 4 4 3 2 1 4 4 5 6 4 1 3 3 1 1 4 3 2 3 4 3 2 3 5 6 5 2 0 1 1 3 2 2 9 10 5 4 1 2 3 4 5 6 7 7 8 6 5 6 7 7 7 9 12 15 15 15 14 13 15 16 16 19 20 13 4 4 3 2 4 4 2 2 1 2 5 7 10 11 13
1 1 1 1 1 1 1 1 2 3 3 3 3 5 5 5 7 4 2 2 4 3 1 2 5 6 4 3 2 2 3 3 6 5 1 1 1 1 0 2 1 6 7 3 3 4 2 3 3 3 4 6 7 8 8 7 8 9 9 10 13 16 17 16 16 16 16 17 17 17 19 15 5 3 4 4 3 3 4 4 5 4 2 3 5 8 10 11
2 1 1 2 1 1 2 1 1 1 1 2 4 4 3 4 4 1 1 0 1 0 2 3 4 5 2 2 2 1 3 4 2 3 3 2 4 3 2 1 1 4 4 1 1 3 3 3 4 4 5 6 7 10 9 8 9 11 11 14 19 19 17 15 15 15 14 14 15 14 13 7 2 3 1 3 3 2 4 5 7 8 6 4 5 9 12 12
4 4 2 1 0 1 2 2 1 2 2 2 2 2 1 0 3 3 1 1 6 8 7 6 3 3 2 4 2 2 2 2 1 6 9 10 11 10 10 9 8 5 2 1 2 2 2 3 3 4 5 6 8 8 5 6 8 11 11 14 18 18 16 15 15 15 12 8 9 10 6 2 3 2 1 2 3 3 5 6 9 9 9 9 9 10 14 14
Wind_Direction
325 327 327 327 327 327 326 326 326 326 329 329 331 334 335 336 335 336 337 341 342 343 343 342 342 341 340 339 339 338 336 334 332 332 336 2 14 330 305 269 248 229 223 225 227 227 231 236 229 221 213 209 212 202 179 179 169 158 115 115 218 206 202 189 188 200 185 252 262 251 275 275 290 302 302 294 265 268 278 273 269 266 266 269 275 281 281 281
316 317 317 317 317 316 317 315 315 316 316 317 319 318 320 322 321 322 322 323 325 327 329 329 331 331 332 333 333 332 332 331 327 327 46 39 11 358 355 289 248 236 233 232 233 233 233 236 231 224 215 209 215 204 188 189 178 163 114 147 224 209 205 197 200 208 205 249 265 275 290 288 281 291 296 285 266 274 281 277 271 268 273 275 275 280 281 280
309 309 309 310 310 309 309 308 308 307 306 308 307 308 308 309 310 311 311 313 315 317 320 321 322 323 325 325 327 329 332 329 321 288 115 18 359 345 350 337 261 244 239 233 229 228 227 226 225 224 219 214 213 198 188 189 189 191 153 190 241 221 225 225 228 237 241 259 277 285 290 282 280 284 271 252 278 280 266 271 269 265 280 290 287 282 280 280
302 302 303 303 303 303 303 303 304 301 301 300 300 301 301 302 302 302 305 306 308 310 313 315 315 318 319 321 324 327 332 330 311 193 179 347 348 334 337 352 328 267 246 236 230 231 229 224 220 219 219 219 213 203 203 198 195 187 168 204 231 196 236 242 243 256 258 263 268 277 290 285 285 280 244 231 293 276 258 271 274 270 283 295 296 289 281 279
298 298 299 298 297 297 298 298 298 298 298 297 296 296 296 298 297 299 301 302 304 305 308 310 311 313 314 316 318 322 336 341 257 179 296 325 331 318 309 332 346 327 264 241 236 237 235 229 220 214 215 218 191 187 225 207 192 186 207 228 232 198 243 260 256 266 267 263 265 269 281 284 287 277 250 219 225 262 272 281 284 283 285 290 291 289 283 280
294 296 296 295 295 295 295 295 295 295 294 294 293 292 293 292 292 294 294 297 299 300 303 304 306 307 308 311 311 314 325 318 273 278 302 312 313 302 286 305 329 336 305 258 244 239 237 227 216 209 202 217 194 194 227 204 193 225 241 233 242 237 245 268 263 264 273 268 264 264 277 284 286 287 267 217 229 269 284 287 286 287 286 285 286 284 283 283
290 292 293 294 294 294 294 294 293 292 292 291 291 291 291 290 290 290 290 293 293 295 298 299 301 301 303 304 303 305 286 273 295 298 301 305 299 290 284 298 307 315 311 277 257 241 237 223 213 207 184 247 219 211 228 205 198 227 269 238 247 247 249 264 265 266 273 268 269 273 282 282 271 281 281 244 254 274 287 291 287 288 287 283 282 282 283 284
289 290 291 292 293 295 294 294 294 293 293 292 291 291 290 290 290 290 290 291 291 292 294 295 296 296 299 299 299 297 269 284 303 298 300 302 286 290 291 293 292 300 302 280 265 246 239 224 216 211 196 231 219 208 210 216 211 211 244 252 251 254 258 269 273 273 274 273 276 273 269 272 270 272 275 269 271 277 285 291 289 287 287 283 282 284 284 283
290 290 291 292 293 294 294 295 295 295 295 294 293 292 291 290 289 289 289 289 290 289 290 291 290 292 294 293 296 288 276 292 301 287 294 292 287 291 288 287 286 291 291 272 258 243 235 227 224 222 227 232 218 217 192 203 234 212 229 254 267 269 273 278 277 275 277 276 270 253 256 267 275 282 268 271 275 280 284 288 288 287 287 287 286 288 286 283
289 289 290 291 292 292 293 293 294 294 294 294 293 292 291 290 289 288 287 288 288 286 287 286 286 288 288 288 288 277 283 295 293 287 291 287 287 286 283 284 283 285 281 268 253 246 244 242 239 228 237 244 220 219 185 190 238 234 244 272 275 277 283 280 275 275 273 272 258 224 248 265 273 300 263 272 277 280 282 284 286 286 288 291 290 291 290 286
286 287 288 289 289 290 290 290 291 291 291 291 291 290 290 289 289 288 287 287 287 286 285 284 286 285 285 286 273 263 285 292 289 290 288 285 285 280 279 279 279 279 273 266 256 254 253 246 234 209 224 235 216 216 212 225 248 275 305 297 284 292 294 278 266 272 261 268 257 220 242 272 276 234 249 271 279 279 279 283 287 285 286 290 291 292 291 289
283 285 285 287 288 288 288 289 289 289 290 290 290 290 290 289 289 289 289 288 287 286 284 284 284 282 285 282 268 270 286 288 284 286 282 282 280 276 278 274 272 272 267 264 256 252 243 235 227 214 221 210 193 238 234 237 252 290 327 305 296 323 306 273 253 264 239 243 253 187 231 282 257 229 255 273 281 279 279 281 286 286 286 286 287 289 289 288
284 285 285 286 286 287 288 288 289 290 290 290 290 290 290 290 290 290 289 288 287 284 282 281 278 278 279 275 274 280 286 283 280 279 277 277 276 274 273 270 269 266 263 258 249 242 230 231 228 225 236 223 214 257 258 273 276 290 324 222 306 333 309 270 238 249 220 219 180 147 241 266 233 247 263 278 281 280 281 278 282 284 284 285 284 286 285 285
286 285 286 286 286 288 289 290 292 294 295 295 295 294 293 292 292 292 291 290 288 284 281 277 273 271 264 268 280 285 283 282 281 278 276 274 272 272 270 269 268 265 262 253 246 239 226 225 220 223 236 232 240 262 281 328 328 289 303 170 318 291 283 294 252 152 249 235 170 158 264 250 249 262 268 279 279 281 280 276 283 282 283 285 285 285 283 284
288 289 290 289 291 292 292 297 299 303 305 302 302 301 299 299 297 295 295 293 289 285 281 274 269 263 259 272 280 283 282 283 283 281 278 272 269 270 270 270 267 262 255 244 238 233 223 209 202 207 225 232 238 256 303 349 2 15 287 279 270 213 266 307 299 203 237 250 167 167 258 254 254 263 271 280 281 286 284 280 285 284 285 286 285 285 284 285
292 295 296 298 301 303 306 308 312 317 318 314 313 310 306 305 302 300 298 294 290 283 277 272 266 253 252 278 279 278 281 283 285 283 278 275 269 265 266 266 263 254 241 231 227 220 208 189 191 200 205 225 213 190 4 355 326 345 223 254 251 241 281 320 301 258 240 219 177 208 243 266 259 259 274 285 286 291 291 285 283 283 285 286 286 286 284 284
305 307 309 314 315 320 322 323 326 327 329 325 319 317 314 311 307 303 299 296 292 282 270 262 256 248 250 266 273 276 281 286 288 283 280 280 270 262 260 256 250 238 220 210 208 199 187 179 180 201 215 221 123 113 11 304 272 283 223 243 241 245 276 302 296 299 284 171 203 240 242 254 263 272 281 283 285 288 285 283 282 282 285 285 286 284 283 283
323 325 325 326 329 335 335 334 333 330 336 335 327 326 322 315 312 307 303 303 296 287 270 240 202 219 259 253 261 278 290 292 289 286 285 281 270 262 253 246 237 213 186 184 191 180 176 176 157 143 289 266 121 123 198 236 235 240 234 254 280 262 252 253 260 301 325 258 236 276 262 257 265 275 277 280 284 280 273 279 281 281 282 282 282 282 284 284
326 334 334 333 336 341 341 339 338 335 339 342 339 337 330 325 324 311 312 325 300 289 275 224 194 208 267 265 271 285 292 289 287 285 280 276 268 253 231 221 208 180 164 160 187 180 170 141 100 125 227 220 208 182 208 230 234 235 227 245 283 283 252 237 249 261 296 284 274 276 273 271 272 272 274 279 281 277 272 275 278 279 279 279 281 282 284 284
304 318 324 326 330 336 340 339 341 343 341 344 350 349 347 349 345 310 309 309 292 281 275 261 250 253 264 273 277 280 282 280 280 279 273 271 259 228 195 177 171 172 169 158 184 186 171 159 158 200 216 216 217 210 222 249 307 323 251 260 263 271 272 260 266 268 223 276 271 259 272 280 279 278 277 278 281 278 269 267 271 276 278 279 281 282 283 284
285 293 303 311 316 323 329 334 339 344 344 346 353 0 11 7 358 306 313 307 299 291 283 279 269 261 266 272 270 269 271 274 273 268 266 257 224 192 183 165 151 178 209 153 146 148 164 190 213 220 222 218 224 230 247 278 316 287 256 276 269 249 271 267 269 281 238 247 263 248 273 280 279 279 272 271 273 266 261 264 271 275 278 280 279 280 283 286
272 277 288 296 303 310 315 322 330 338 344 345 350 2 9 359 341 322 320 298 297 299 290 282 270 262 265 264 260 259 258 264 266 257 253 230 199 194 185 159 148 189 187 139 126 107 189 221 234 233 234 260 20 63 92 241 252 257 249 282 282 252 278 274 262 293 350 224 275 287 282 279 277 270 259 252 250 259 267 268 269 271 274 276 277 280 286 294
271 273 279 284 291 298 303 311 319 331 341 342 346 356 357 350 343 337 331 277 288 299 288 277 266 261 264 260 256 255 246 245 256 254 245 221 197 202 186 157 152 157 159 194 197 210 226 236 238 237 227 211 266 84 91 291 255 230 226 267 276 260 279 273 261 317 342 244 274 298 289 283 272 262 258 254 249 258 268 269 267 265 264 268 273 280 292 306
275 275 277 279 283 291 295 302 315 327 336 342 344 346 347 345 346 342 331 277 274 291 277 270 264 261 266 265 260 252 238 235 247 252 241 222 199 196 192 171 151 153 201 210 210 226 236 230 225 215 188 195 231 229 156 265 262 229 210 228 261 259 249 252 276 334 328 286 299 317 300 294 267 255 277 283 260 253 261 267 265 260 259 267 274 282 300 320
276 276 277 279 283 293 296 299 310 321 328 336 336 339 346 345 347 346 335 304 287 280 260 262 275 268 262 272 264 234 221 227 232 230 224 212 200 186 173 174 166 203 216 207 221 247 254 248 207 134 149 174 200 231 210 216 251 267 218 213 239 254 253 257 288 346 350 313 340 10 323 302 25 85 281 298 324 276 257 252 254 264 281 281 281 298 329 340
271 271 274 276 279 290 296 302 310 312 318 324 328 340 345 343 349 348 343 15 309 277 227 233 262 238 220 309 202 175 176 237 232 221 209 202 199 187 148 167 165 223 202 182 218 251 256 260 232 146 133 132 162 238 221 191 232 285 237 209 224 242 251 259 279 331 307 257 293 61 8 284 287 228 253 263 336 281 258 244 257 299 312 288 296 340 5 11
265 266 271 275 280 287 290 293 303 315 319 316 327 341 341 343 350 347 351 16 301 252 120 164 183 38 294 181 155 152 173 286 62 204 200 195 196 189 208 214 140 249 177 138 301 249 206 341 47 93 109 124 165 240 216 168 182 264 234 190 201 224 233 230 220 224 239 280 313 95 145 273 284 257 251 194 173 252 262 264 285 304 294 291 320 18 35 46
265 265 267 268 271 277 278 278 289 314 318 311 327 337 341 345 341 348 31 331 295 110 101 150 115 55 58 156 160 133 57 203 84 127 186 190 195 182 222 220 184 206 175 150 251 253 151 153 168 136 112 163 200 221 184 159 183 252 199 143 174 204 204 167 164 204 266 350 311 254 148 254 280 273 20 83 193 251 268 273 283 283 293 307 353 54 53 57
265 266 267 262 259 261 267 273 279 294 304 307 316 323 341 341 336 15 86 241 313 56 88 170 113 47 73 131 175 205 33 31 92 145 165 184 200 189 227 220 179 193 205 179 230 255 188 175 185 151 136 211 218 220 176 166 194 222 119 90 74 64 65 92 132 135 48 316 252 212 167 241 280 280 86 73 258 261 262 271 276 270 303 353 46 58 55 61
265 265 264 261 257 255 260 268 270 277 291 300 298 305 328 328 358 57 225 237 355 9 111 154 225 317 72 103 304 272 227 298 113 138 136 152 195 202 214 240 143 135 253 287 255 251 239 101 127 175 205 210 170 129 187 173 168 125 105 66 43 39 40 51 31 91 59 286 227 192 184 185 283 292 133 186 235 218 239 300 302 300 348 68 67 45 55 60
266 265 262 261 258 255 258 262 263 267 276 286 288 294 314 330 69 185 236 274 8 281 99 116 266 55 104 122 307 281 173 245 149 144 143 115 168 200 58 261 134 79 357 329 281 276 224 142 203 226 219 187 112 78 350 82 113 104 92 64 37 343 12 27 351 51 171 262 238 199 187 179 234 263 332 276 261 221 228 309 310 306 309 345 41 46 59 52
269 268 267 266 260 256 255 257 261 264 269 280 276 274 347 347 241 209 244 353 343 260 129 213 263 112 123 76 262 225 116 216 184 157 163 135 149 187 189 192 176 329 321 279 267 318 282 211 235 258 216 181 135 110 339 15 60 107 111 118 148 308 343 347 309 82 220 254 277 239 184 210 241 257 295 278 277 270 223 233 252 272 289 308 16 57 58 41
273 271 271 268 265 263 256 254 258 258 264 271 255 229 89 209 236 182 170 265 255 246 115 159 332 112 128 3 285 225 60 199 187 183 169 136 170 232 239 219 176 210 263 224 298 325 293 262 197 129 248 189 166 179 233 241 169 162 157 157 168 198 242 262 254 256 267 272 309 315 186 268 282 280 249 247 269 294 251 239 263 274 286 309 32 61 49 36
272 272 271 267 265 263 257 251 245 243 256 252 215 153 183 225 236 103 180 234 260 324 345 115 62 15 131 239 252 203 234 260 165 163 174 125 176 252 259 243 193 162 168 187 313 190 257 286 210 180 220 172 180 197 170 137 161 184 165 138 164 178 195 224 223 237 261 275 306 302 191 232 263 287 251 237 261 291 291 290 295 293 286 305 65 54 41 35
268 268 267 266 263 258 256 247 232 231 236 212 161 183 236 229 246 226 218 235 271 299 299 43 80 323 284 235 265 223 216 250 102 125 187 174 199 224 226 223 189 153 129 184 259 157 216 266 245 217 147 152 180 195 128 114 162 204 123 113 222 206 178 225 237 205 203 289 285 251 228 235 242 284 282 266 272 288 295 308 340 344 23 84 62 45 40 38
266 264 262 261 258 254 254 241 226 227 217 186 161 233 232 224 204 208 207 193 188 181 310 314 221 268 281 252 300 310 188 213 200 129 213 215 228 226 225 230 186 174 172 181 211 181 229 265 262 25 79 180 187 177 142 161 195 160 126 188 225 175 145 235 272 137 100 264 252 204 252 278 293 292 294 313 55 357 357 16 36 50 69 65 45 43 46 43
264 260 258 257 255 252 247 230 218 220 205 181 211 235 220 225 206 201 192 144 160 134 114 285 225 190 256 265 277 295 176 216 219 175 221 244 244 206 210 250 197 188 200 198 212 223 232 267 247 163 220 233 190 161 125 174 159 137 179 216 200 137 138 148 262 336 224 246 247 222 253 274 285 286 323 50 74 36 13 5 5 29 42 37 35 46 48 46
263 261 260 260 256 246 234 221 208 207 195 179 236 236 217 223 207 198 196 166 121 67 129 240 241 197 231 247 254 221 183 205 199 185 213 235 240 185 170 235 198 191 213 201 248 258 215 264 266 189 200 217 118 134 289 277 178 159 200 231 125 180 228 154 171 238 240 247 257 225 240 255 253 254 277 286 269 267 14 7 15 25 27 25 31 39 40 42
267 265 268 264 248 230 218 208 198 197 190 188 234 233 215 228 228 221 221 212 143 192 223 239 234 252 249 218 228 235 195 194 189 204 215 218 239 198 163 213 203 197 217 177 188 249 159 242 268 346 181 168 77 162 208 228 242 83 5 312 114 177 215 202 173 169 233 255 260 232 231 234 230 246 269 278 278 20 21 17 26 36 37 31 33 36 37 41
249 251 266 226 215 211 196 190 193 192 193 223 226 226 197 228 240 229 227 230 209 198 235 239 208 239 262 224 223 248 227 203 193 209 227 218 252 242 196 196 171 159 179 139 201 258 87 244 247 307 2 207 188 205 190 188 197 159 204 242 225 198 223 277 229 177 223 251 259 257 248 236 228 248 270 288 28 45 35 48 52 49 49 41 38 41 40 42
193 186 252 198 202 192 176 178 194 196 206 236 231 243 246 246 263 236 226 224 222 225 230 221 205 232 268 272 252 242 227 231 212 218 239 236 251 260 240 203 175 157 104 72 247 221 182 247 237 233 253 226 225 222 191 190 193 187 199 209 218 223 238 272 249 207 210 237 245 257 258 248 242 284 296 340 56 53 45 66 67 49 49 45 41 44 43 42
172 153 182 184 192 177 169 173 208 203 207 230 233 246 246 262 270 251 229 213 214 233 239 232 224 230 255 258 252 240 230 240 225 227 249 242 230 238 273 284 192 161 145 137 225 206 168 161 238 239 237 240 251 246 188 185 196 210 219 207 214 211 195 233 248 234 227 242 240 256 263 246 214 267 301 10 62 59 44 52 58 44 41 43 42 42 41 39
174 175 159 159 173 174 170 181 229 200 224 254 252 256 255 277 271 241 244 201 203 227 233 240 234 229 238 244 244 242 237 233 223 232 248 245 238 259 326 335 332 134 232 288 277 232 133 139 235 247 256 277 279 278 331 94 112 241 245 213 206 218 215 235 254 249 241 248 249 258 263 242 208 259 355 64 72 62 48 48 50 39 34 37 39 38 35 33
181 190 171 160 171 180 181 206 218 204 239 252 256 259 253 258 257 254 257 181 190 202 181 277 257 244 256 267 255 241 235 236 241 248 252 248 267 340 24 17 14 41 34 332 316 335 351 200 217 245 266 294 288 285 326 29 122 225 238 228 221 242 261 279 290 272 247 239 240 254 260 248 250 341 75 81 73 60 53 51 51 46 37 36 36 35 32 27
153 199 204 186 186 194 207 232 202 216 235 240 253 257 255 260 255 253 258 245 230 218 213 259 237 219 261 295 295 250 216 200 241 284 300 262 276 337 28 21 28 63 78 57 22 5 341 274 259 259 249 246 260 262 245 223 248 231 274 280 268 234 245 271 276 260 252 235 233 249 263 259 265 313 50 72 78 74 57 49 54 52 44 40 38 35 31 27
109 191 222 211 209 220 239 243 216 224 222 239 251 243 245 254 259 255 250 251 244 228 228 241 214 173 249 241 252 267 248 208 211 248 263 252 266 295 14 21 42 73 130 98 51 58 120 266 254 256 258 257 272 278 290 346 283 253 285 297 300 276 250 259 256 245 259 262 248 247 259 265 269 286 320 10 70 96 85 58 57 54 48 44 39 34 31 28
118 210 147 191 234 240 246 254 267 256 244 260 246 242 241 241 261 269 232 236 249 220 225 236 205 195 227 229 243 261 256 233 220 224 237 241 255 296 331 25 52 48 138 162 45 128 189 258 248 250 259 260 270 279 291 309 274 257 275 278 279 283 272 260 256 256 273 280 262 253 270 278 279 279 284 310 5 84 102 92 75 63 54 46 35 27 22 20
141 218 131 131 228 240 233 254 294 293 269 258 245 286 267 235 244 251 222 251 319 121 215 248 219 215 235 252 260 258 264 260 245 225 235 256 284 324 337 9 57 41 50 24 13 96 180 266 262 264 274 273 281 291 296 298 280 272 276 270 270 272 262 256 258 262 268 267 269 284 287 282 281 276 242 219 259 141 127 111 101 83 60 45 33 23 16 11
155 290 186 174 239 235 152 313 1 350 286 262 253 262 255 247 252 248 309 335 306 299 249 257 276 327 319 300 283 242 259 274 268 253 224 278 259 265 319 289 41 40 41 22 339 354 186 261 267 273 286 284 284 291 297 301 294 286 278 274 275 269 263 264 268 269 264 262 268 276 273 272 275 252 160 152 164 164 157 157 168 129 39 35 25 16 11 3
100 1 348 12 307 265 250 294 359 0 298 264 248 254 252 259 267 276 352 314 279 299 312 281 327 359 11 351 336 268 279 295 284 277 185 106 244 166 279 245 243 13 17 19 313 316 292 285 327 358 303 282 279 283 289 297 295 291 288 281 273 267 266 269 271 270 266 265 268 266 264 266 265 129 142 145 142 175 196 219 238 245 286 359 359 357 354 348
198 214 277 19 336 215 170 167 133 142 268 227 217 251 266 255 269 323 33 350 197 166 96 81 0 354 8 347 354 337 354 26 5 341 17 343 300 312 307 286 16 349 344 343 304 325 312 304 346 351 292 272 280 287 297 314 308 293 283 273 266 264 262 260 259 261 262 267 271 269 268 264 169 116 141 151 150 222 240 251 258 248 244 274 314 332 338 337
225 233 235 165 301 244 147 121 124 174 221 220 211 264 265 80 25 35 240 139 109 112 89 66 16 351 349 310 307 110 60 37 342 314 315 299 286 280 269 264 266 264 258 319 308 277 260 284 304 296 280 278 283 288 325 354 311 282 267 258 258 260 261 257 258 260 260 261 266 267 267 230 165 146 140 178 189 232 257 283 291 277 264 265 279 308 326 328
Height
1557 1557 1557 1557 1557 1556 1556 1556 1556 1556 1556 1557 1557 1557 1556 1556 1556 1556 1556 1556 1556 1555 1555 1555 1555 1554 1554 1553 1553 1552 1552 1551 1550 1550 1548 1547 1547 1547 1547 1547 1547 1547 1548 1548 1548 1549 1549 1549 1549 1550 1550 1550 1551 1550 1551 1551 1552 1552 1555 1558 1558 1559 1557 1551 1550 1549 1544 1541 1540 1539 1539 1539 1538 1537 1537 1536 1536 1534 1532 1529 1530 1530 1528 1527 1526 1526 1525 1525
1557 1557 1556 1556 1556 1556 1556 1556 1556 1556 1556 1556 1556 1556 1556 1556 1556 1556 1555 1555 1555 1555 1555 1554 1554 1554 1553 1553 1552 1552 1551 1550 1549 1549 1548 1547 1547 1547 1547 1546 1546 1546 1547 1547 1547 1548 1548 1548 1548 1549 1549 1549 1550 1550 1550 1551 1551 1552 1556 1558 1555 1552 1548 1544 1543 1542 1541 1540 1538 1538 1538 1538 1537 1536 1536 1535 1534 1534 1531 1526 1526 1526 1523 1524 1524 1524 1523 1522
1556 1556 1556 1556 1556 1556 1555 1555 1555 1555 1555 1555 1555 1555 1555 1555 1555 1555 1554 1554 1554 1554 1554 1554 1553 1553 1553 1552 1551 1551 1550 1549 1547 1547 1547 1546 1546 1546 1546 1545 1545 1545 1545 1546 1546 1547 1547 1547 1547 1548 1548 1548 1549 1549 1549 1549 1550 1550 1554 1555 1549 1545 1542 1541 1540 1539 1538 1538 1537 1537 1536 1536 1534 1534 1535 1534 1532 1532 1528 1523 1523 1522 1519 1520 1522 1522 1521 1520
1555 1555 1555 1555 1555 1555 1555 1555 1555 1554 1555 1554 1554 1554 1554 1554 1554 1554 1553 1553 1553 1553 1553 1553 1552 1552 1552 1551 1551 1550 1549 1548 1545 1545 1545 1545 1546 1545 1545 1545 1544 1544 1545 1545 1545 1546 1546 1546 1547 1547 1547 1547 1548 1548 1548 1548 1548 1549 1549 1548 1543 1541 1540 1538 1538 1537 1537 1537 1536 1536 1535 1533 1532 1532 1532 1532 1533 1528 1522 1519 1519 1518 1516 1517 1519 1519 1518 1517
1554 1554 1554 1554 1554 1554 1554 1554 1554 1554 1554 1553 1553 1553 1553 1553 1553 1553 1552 1552 1552 1552 1552 1552 1551 1551 1550 1550 1550 1549 1549 1548 1544 1544 1545 1544 1545 1544 1544 1544 1544 1544 1544 1544 1544 1545 1545 1546 1546 1546 1546 1546 1547 1547 1546 1545 1546 1546 1543 1540 1539 1540 1538 1535 1536 1536 1536 1536 1535 1535 1534 1530 1529 1530 1529 1531 1532 1522 1515 1515 1516 1513 1514 1515 1515 1515 1515 1514
1553 1553 1553 1553 1553 1553 1552 1553 1552 1552 1552 1552 1552 1552 1552 1552 1551 1551 1551 1551 1551 1550 1550 1550 1550 1550 1549 1548 1548 1548 1549 1549 1544 1544 1544 1543 1544 1543 1543 1543 1543 1543 1543 1543 1543 1544 1544 1545 1545 1545 1545 1545 1546 1545 1543 1544 1545 1543 1539 1538 1537 1538 1536 1533 1535 1535 1534 1535 1534 1534 1532 1528 1528 1527 1525 1527 1525 1515 1510 1512 1512 1511 1511 1512 1512 1511 1510 1510
1552 1552 1552 1551 1552 1551 1551 1551 1551 1551 1551 1551 1551 1550 1550 1550 1550 1550 1550 1550 1549 1549 1549 1549 1548 1548 1548 1547 1546 1546 1547 1546 1543 1543 1542 1542 1542 1542 1542 1542 1542 1542 1542 1542 1542 1542 1543 1543 1544 1544 1544 1544 1544 1543 1542 1542 1543 1543 1539 1536 1536 1535 1534 1532 1533 1533 1533 1533 1531 1532 1531 1526 1525 1525 1522 1520 1515 1509 1507 1508 1509 1509 1509 1509 1508 1507 1506 1506
1550 1551 1550 1550 1550 1550 1550 1550 1550 1550 1549 1549 1549 1549 1549 1549 1549 1548 1549 1548 1548 1548 1547 1547 1547 1546 1546 1545 1544 1544 1543 1542 1541 1541 1541 1541 1541 1541 1541 1540 1540 1540 1540 1540 1540 1541 1541 1541 1542 1542 1543 1542 1541 1541 1542 1542 1542 1542 1537 1534 1534 1534 1532 1531 1531 1531 1531 1530 1529 1530 1528 1521 1521 1524 1520 1512 1507 1505 1505 1505 1506 1506 1505 1505 1504 1503 1503 1503
1549 1549 1549 1549 1549 1549 1549 1549 1548 1548 1548 1548 1547 1547 1547 1547 1547 1547 1547 1547 1547 1546 1546 1546 1545 1545 1545 1544 1543 1541 1538 1538 1539 1539 1539 1539 1539 1539 1538 1538 1538 1538 1539 1539 1539 1539 1539 1539 1539 1540 1540 1540 1540 1540 1540 1541 1539 1536 1534 1533 1533 1532 1531 1530 1529 1528 1529 1526 1526 1527 1525 1519 1518 1522 1515 1502 1499 1502 1505 1504 1503 1503 1502 1501 1500 1499 1500 1499
1548 1548 1548 1547 1547 1547 1547 1547 1547 1547 1546 1546 1546 1545 1545 1545 1545 1545 1545 1545 1545 1544 1544 1544 1543 1543 1543 1542 1542 1538 1533 1536 1537 1537 1538 1537 1537 1537 1536 1536 1536 1536 1536 1537 1537 1537 1537 1538 1538 1538 1539 1539 1538 1538 1539 1539 1536 1533 1534 1533 1532 1531 1529 1528 1526 1526 1527 1523 1521 1523 1521 1516 1518 1522 1510 1494 1495 1501 1502 1501 1500 1500 1498 1497 1496 1496 1496 1495
1546 1546 1546 1546 1546 1546 1545 1545 1545 1545 1544 1544 1544 1543 1543 1543 1543 1543 1543 1543 1543 1542 1542 1542 1541 1541 1540 1540 1539 1533 1530 1534 1535 1535 1536 1535 1535 1534 1534 1534 1534 1534 1534 1534 1535 1535 1536 1536 1537 1538 1538 1538 1538 1538 1538 1536 1534 1534 1534 1533 1530 1530 1527 1525 1524 1522 1523 1519 1515 1518 1519 1516 1518 1518 1504 1490 1494 1499 1498 1498 1497 1497 1495 1494 1493 1493 1493 1492
1544 1544 1544 1544 1544 1544 1544 1544 1543 1543 1543 1542 1542 1541 1541 1540 1540 1540 1540 1540 1540 1540 1539 1540 1539 1539 1539 1537 1532 1529 1530 1532 1532 1533 1533 1533 1532 1531 1531 1532 1531 1532 1532 1533 1533 1534 1535 1535 1536 1536 1536 1537 1537 1537 1535 1534 1535 1534 1534 1534 1530 1530 1525 1520 1520 1518 1518 1516 1512 1516 1519 1515 1513 1507 1494 1490 1495 1496 1496 1495 1493 1492 1491 1490 1490 1490 1490 1489
1543 1543 1543 1543 1543 1542 1542 1542 1542 1541 1541 1540 1539 1539 1538 1538 1537 1537 1537 1537 1537 1537 1537 1537 1537 1537 1537 1533 1526 1527 1529 1529 1529 1530 1530 1530 1530 1529 1529 1529 1529 1530 1530 1531 1532 1532 1533 1533 1534 1535 1535 1536 1536 1535 1533 1534 1535 1533 1535 1535 1531 1532 1524 1515 1517 1517 1515 1514 1511 1515 1516 1509 1504 1497 1490 1492 1495 1494 1494 1492 1490 1488 1487 1487 1487 1487 1487 1486
1542 1541 1541 1541 1541 1541 1541 1540 1540 1540 1539 1538 1538 1537 1536 1535 1535 1534 1534 1534 1534 1534 1534 1534 1534 1534 1534 1529 1524 1525 1525 1526 1526 1527 1528 1528 1527 1526 1526 1527 1527 1528 1529 1529 1530 1531 1531 1532 1533 1534 1534 1535 1534 1534 1533 1534 1534 1534 1535 1534 1536 1536 1523 1513 1516 1517 1514 1512 1510 1514 1514 1505 1498 1492 1489 1491 1492 1492 1491 1489 1487 1485 1483 1483 1483 1483 1482 1481
1540 1540 1540 1540 1540 1540 1539 1539 1539 1538 1537 1537 1536 1535 1534 1533 1533 1532 1532 1531 1531 1531 1531 1531 1531 1532 1531 1526 1523 1523 1522 1523 1524 1524 1525 1525 1525 1524 1524 1525 1526 1526 1527 1528 1528 1529 1530 1531 1532 1533 1533 1533 1533 1533 1534 1534 1534 1535 1534 1532 1535 1535 1523 1515 1515 1514 1511 1509 1510 1513 1510 1503 1497 1490 1487 1490 1491 1490 1489 1486 1485 1482 1480 1479 1478 1478 1477 1474
1539 1539 1539 1539 1539 1538 1538 1538 1537 1537 1536 1535 1534 1533 1532 1531 1530 1530 1529 1529 1529 1529 1529 1529 1529 1530 1530 1524 1521 1521 1520 1521 1522 1522 1522 1522 1522 1522 1522 1523 1524 1525 1526 1526 1527 1528 1529 1530 1531 1532 1532 1531 1532 1532 1534 1537 1536 1535 1535 1531 1530 1530 1526 1521 1513 1509 1508 1508 1509 1509 1503 1497 1493 1488 1486 1489 1489 1489 1487 1483 1481 1478 1475 1474 1473 1471 1469 1467
1538 1538 1537 1537 1537 1537 1537 1536 1536 1535 1535 1534 1533 1532 1530 1529 1528 1528 1527 1527 1527 1526 1527 1527 1527 1529 1527 1521 1519 1519 1519 1519 1519 1520 1520 1520 1520 1520 1521 1521 1522 1523 1524 1526 1527 1527 1528 1530 1530 1531 1531 1531 1532 1532 1537 1541 1536 1532 1534 1532 1529 1529 1528 1524 1515 1506 1506 1506 1506 1506 1503 1495 1489 1487 1487 1486 1486 1488 1485 1478 1475 1474 1472 1469 1467 1465 1462 1462
1537 1537 1536 1536 1536 1536 1536 1535 1535 1534 1534 1533 1531 1530 1529 1528 1527 1526 1525 1525 1525 1525 1526 1525 1527 1529 1524 1518 1518 1518 1518 1518 1518 1518 1518 1518 1518 1518 1519 1520 1521 1522 1524 1525 1525 1527 1528 1529 1530 1531 1531 1532 1531 1533 1536 1533 1525 1523 1526 1526 1526 1527 1528 1526 1518 1508 1505 1503 1503 1506 1502 1493 1490 1489 1486 1484 1484 1484 1481 1475 1470 1469 1468 1464 1461 1459 1458 1458
1536 1536 1536 1536 1535 1535 1535 1534 1534 1533 1533 1532 1530 1529 1527 1526 1525 1524 1524 1524 1524 1524 1525 1524 1524 1525 1521 1516 1517 1517 1517 1517 1516 1516 1516 1515 1516 1516 1517 1519 1520 1521 1523 1524 1525 1525 1527 1528 1531 1532 1530 1528 1527 1529 1527 1519 1517 1520 1523 1523 1523 1523 1522 1521 1515 1508 1508 1504 1502 1504 1495 1487 1488 1487 1484 1482 1480 1480 1477 1471 1466 1464 1462 1459 1459 1456 1455 1454
1536 1535 1535 1535 1535 1534 1534 1534 1533 1532 1531 1530 1529 1528 1526 1526 1524 1523 1523 1523 1523 1522 1522 1522 1521 1519 1517 1516 1516 1516 1516 1515 1514 1514 1514 1514 1514 1515 1517 1518 1519 1521 1521 1522 1523 1524 1525 1527 1529 1527 1523 1521 1521 1522 1520 1517 1521 1524 1525 1525 1524 1524 1519 1514 1510 1506 1510 1506 1499 1498 1490 1483 1484 1483 1482 1480 1477 1476 1471 1466 1463 1461 1458 1456 1456 1453 1450 1449
1535 1535 1535 1534 1534 1534 1533 1533 1532 1531 1530 1529 1529 1528 1527 1527 1526 1525 1523 1520 1519 1519 1518 1517 1517 1515 1514 1514 1514 1514 1514 1513 1512 1512 1512 1513 1514 1515 1516 1517 1519 1520 1521 1521 1523 1523 1524 1527 1526 1519 1516 1518 1520 1521 1522 1523 1525 1525 1525 1525 1524 1526 1517 1509 1508 1505 1508 1508 1498 1495 1490 1482 1483 1481 1479 1478 1474 1468 1462 1463 1462 1459 1456 1453 1451 1448 1445 1447
1534 1534 1534 1534 1533 1533 1533 1532 1532 1531 1530 1529 1528 1528 1528 1528 1527 1526 1524 1520 1515 1515 1514 1512 1511 1509 1509 1510 1509 1510 1512 1511 1510 1510 1511 1512 1513 1514 1514 1516 1518 1519 1521 1522 1522 1523 1526 1527 1522 1516 1516 1520 1521 1522 1524 1524 1525 1524 1526 1527 1525 1524 1515 1507 1507 1506 1509 1508 1497 1495 1489 1479 1480 1476 1470 1468 1466 1461 1458 1461 1461 1456 1453 1448 1445 1446 1445 1447
1533 1533 1533 1532 1532 1532 1532 1532 1531 1531 1530 1530 1529 1528 1528 1527 1526 1524 1524 1521 1514 1510 1509 1506 1505 1504 1504 1505 1505 1507 1509 1508 1508 1508 1510 1511 1512 1513 1513 1515 1518 1519 1521 1520 1519 1521 1523 1521 1517 1515 1518 1520 1521 1522 1523 1523 1524 1523 1525 1526 1522 1520 1516 1509 1506 1505 1509 1506 1498 1498 1487 1472 1471 1466 1460 1461 1461 1460 1458 1458 1458 1454 1449 1444 1443 1446 1448 1449
1531 1531 1532 1531 1531 1531 1530 1531 1530 1530 1530 1529 1529 1528 1527 1526 1525 1523 1522 1519 1513 1507 1503 1501 1501 1501 1501 1502 1502 1504 1505 1506 1507 1507 1508 1509 1511 1512 1512 1513 1517 1519 1518 1517 1516 1515 1514 1514 1513 1514 1517 1519 1520 1522 1524 1523 1521 1519 1522 1524 1518 1514 1515 1511 1507 1507 1508 1504 1502 1500 1479 1459 1461 1460 1455 1458 1460 1459 1457 1455 1451 1446 1443 1443 1445 1448 1451 1453
1530 1530 1530 1530 1530 1529 1529 1530 1529 1530 1529 1529 1529 1528 1527 1526 1525 1523 1521 1518 1513 1505 1500 1499 1499 1500 1499 1500 1501 1502 1503 1504 1505 1505 1506 1507 1509 1510 1511 1512 1514 1514 1515 1516 1517 1515 1512 1512 1512 1513 1516 1519 1521 1521 1522 1522 1519 1517 1518 1517 1511 1509 1511 1510 1509 1512 1511 1504 1504 1504 1485 1462 1457 1460 1455 1455 1458 1457 1455 1451 1443 1440 1444 1446 1447 1449 1453 1454
1528 1528 1528 1529 1529 1529 1529 1528 1529 1529 1529 1529 1529 1527 1527 1526 1525 1524 1522 1522 1515 1502 1498 1499 1499 1499 1499 1500 1500 1501 1503 1504 1503 1504 1505 1506 1507 1508 1510 1511 1511 1512 1513 1515 1517 1515 1513 1511 1511 1512 1515 1518 1521 1521 1518 1518 1520 1518 1512 1508 1508 1509 1510 1510 1512 1515 1511 1504 1505 1508 1502 1481 1459 1455 1457 1455 1457 1455 1448 1444 1440 1443 1447 1445 1447 1451 1454 1454
1526 1526 1527 1527 1528 1528 1528 1527 1528 1528 1528 1529 1528 1528 1528 1526 1526 1524 1523 1526 1515 1498 1497 1500 1499 1500 1499 1500 1501 1501 1502 1503 1503 1503 1504 1505 1507 1507 1509 1510 1511 1511 1512 1515 1515 1512 1509 1511 1512 1513 1515 1518 1519 1516 1511 1514 1519 1515 1507 1505 1506 1506 1509 1511 1512 1514 1511 1507 1507 1506 1507 1500 1471 1456 1458 1456 1454 1451 1444 1443 1444 1446 1445 1444 1449 1452 1453 1454
1523 1524 1525 1526 1526 1527 1527 1527 1527 1527 1528 1528 1527 1528 1527 1526 1527 1523 1527 1532 1514 1496 1498 1500 1499 1500 1499 1501 1501 1501 1502 1502 1503 1504 1504 1505 1506 1507 1508 1508 1509 1510 1510 1513 1512 1508 1507 1509 1510 1511 1514 1516 1512 1507 1505 1510 1512 1507 1507 1509 1508 1508 1510 1512 1511 1513 1515 1512 1509 1505 1505 1504 1477 1456 1461 1460 1453 1448 1444 1444 1445 1443 1443 1445 1451 1452 1452 1453
1522 1522 1523 1524 1525 1525 1525 1525 1526 1527 1527 1527 1527 1527 1526 1527 1526 1524 1535 1535 1509 1495 1500 1500 1499 1501 1500 1502 1502 1502 1502 1502 1502 1503 1503 1505 1505 1506 1507 1506 1507 1508 1508 1510 1508 1506 1506 1507 1508 1509 1510 1508 1503 1503 1504 1505 1505 1504 1509 1511 1511 1513 1514 1516 1513 1512 1516 1510 1505 1504 1501 1498 1473 1448 1456 1460 1453 1448 1443 1443 1445 1442 1441 1445 1451 1453 1451 1452
1520 1520 1521 1522 1522 1523 1524 1524 1525 1526 1526 1527 1527 1526 1526 1526 1526 1532 1540 1529 1506 1500 1502 1499 1500 1502 1501 1502 1503 1502 1503 1502 1502 1503 1503 1505 1504 1505 1506 1505 1507 1507 1509 1510 1507 1505 1505 1507 1508 1506 1504 1500 1500 1505 1506 1505 1505 1505 1508 1507 1510 1514 1514 1518 1516 1512 1515 1505 1497 1495 1493 1496 1480 1453 1451 1453 1449 1448 1443 1443 1444 1442 1441 1445 1450 1451 1450 1451
1518 1519 1519 1520 1521 1521 1522 1522 1523 1524 1525 1526 1526 1526 1526 1525 1527 1536 1534 1517 1506 1504 1499 1500 1503 1502 1502 1503 1502 1502 1503 1503 1502 1502 1503 1504 1504 1505 1506 1505 1506 1507 1508 1508 1505 1504 1505 1506 1505 1500 1498 1498 1500 1504 1506 1508 1508 1506 1507 1506 1507 1511 1512 1516 1517 1515 1514 1500 1490 1490 1490 1494 1481 1456 1451 1451 1448 1449 1446 1445 1445 1443 1442 1445 1449 1450 1449 1450
1516 1516 1517 1518 1518 1519 1520 1521 1522 1523 1524 1525 1526 1526 1527 1530 1530 1529 1521 1511 1508 1504 1497 1500 1502 1501 1503 1503 1501 1501 1502 1502 1502 1502 1502 1504 1504 1504 1504 1502 1501 1504 1505 1504 1501 1500 1499 1499 1499 1496 1495 1497 1499 1503 1507 1509 1510 1508 1507 1508 1512 1516 1516 1516 1515 1517 1513 1497 1493 1497 1497 1491 1470 1452 1452 1450 1444 1445 1446 1446 1445 1444 1444 1444 1449 1450 1449 1449
1513 1514 1515 1515 1516 1517 1518 1520 1521 1522 1523 1524 1526 1525 1529 1534 1529 1519 1514 1510 1506 1501 1497 1500 1501 1502 1503 1502 1500 1501 1502 1500 1500 1501 1501 1503 1505 1502 1500 1499 1498 1499 1501 1503 1502 1499 1495 1492 1494 1494 1492 1493 1495 1499 1502 1503 1507 1510 1506 1507 1514 1519 1521 1517 1513 1516 1508 1495 1497 1502 1498 1488 1466 1450 1448 1444 1440 1442 1444 1445 1445 1444 1445 1445 1449 1450 1449 1451
1511 1511 1512 1512 1513 1515 1516 1519 1520 1521 1523 1524 1526 1528 1529 1528 1520 1513 1512 1508 1502 1499 1499 1500 1501 1502 1502 1502 1500 1500 1500 1499 1498 1500 1500 1503 1504 1500 1496 1497 1498 1497 1499 1503 1504 1502 1500 1492 1488 1488 1486 1489 1491 1491 1493 1496 1503 1506 1501 1502 1505 1505 1509 1507 1503 1502 1496 1491 1499 1503 1494 1480 1462 1448 1444 1442 1442 1443 1444 1444 1444 1443 1443 1446 1450 1451 1451 1452
1509 1509 1509 1509 1510 1512 1514 1517 1518 1520 1522 1522 1525 1529 1524 1518 1513 1511 1509 1505 1502 1500 1499 1499 1500 1501 1501 1501 1500 1499 1499 1498 1499 1500 1501 1501 1500 1495 1492 1492 1494 1497 1500 1503 1502 1502 1504 1492 1482 1484 1484 1486 1488 1488 1491 1494 1499 1502 1501 1502 1500 1494 1494 1496 1493 1490 1491 1495 1498 1496 1486 1469 1454 1445 1441 1442 1442 1442 1443 1442 1442 1443 1443 1447 1451 1452 1453 1452
1506 1505 1505 1505 1507 1510 1512 1514 1516 1519 1520 1521 1525 1524 1514 1509 1508 1507 1504 1501 1501 1500 1499 1500 1500 1501 1501 1498 1499 1500 1498 1498 1500 1500 1500 1500 1498 1494 1492 1489 1490 1492 1493 1496 1495 1496 1499 1489 1481 1485 1486 1484 1485 1486 1488 1490 1492 1499 1502 1497 1493 1491 1490 1492 1493 1490 1495 1500 1489 1482 1479 1466 1455 1445 1437 1439 1441 1441 1443 1442 1442 1444 1445 1449 1452 1452 1453 1452
1502 1502 1501 1501 1504 1508 1509 1511 1514 1517 1518 1520 1521 1513 1505 1503 1501 1500 1499 1499 1499 1499 1501 1504 1501 1499 1500 1497 1497 1500 1499 1499 1500 1499 1498 1499 1494 1490 1489 1486 1486 1487 1484 1487 1488 1487 1490 1485 1479 1481 1483 1482 1484 1485 1486 1487 1487 1494 1496 1489 1487 1492 1490 1492 1498 1497 1499 1499 1483 1474 1473 1468 1464 1453 1438 1438 1442 1441 1443 1443 1443 1445 1446 1449 1451 1452 1452 1451
1499 1499 1498 1498 1502 1504 1506 1509 1512 1514 1516 1517 1513 1505 1501 1500 1496 1496 1498 1498 1499 1499 1502 1505 1501 1496 1498 1497 1496 1498 1499 1499 1500 1499 1497 1496 1489 1484 1484 1483 1482 1484 1483 1484 1487 1485 1488 1487 1479 1476 1478 1481 1484 1486 1486 1486 1485 1485 1487 1485 1486 1491 1489 1491 1498 1498 1496 1495 1485 1476 1472 1468 1465 1454 1439 1438 1440 1442 1444 1444 1445 1448 1449 1449 1449 1450 1451 1449
1496 1496 1495 1496 1498 1500 1503 1507 1509 1511 1513 1510 1506 1502 1498 1496 1494 1495 1496 1497 1499 1500 1502 1502 1500 1497 1496 1496 1496 1497 1498 1498 1498 1497 1495 1493 1487 1481 1480 1480 1480 1483 1483 1484 1486 1485 1486 1488 1481 1476 1479 1482 1483 1486 1485 1484 1485 1486 1486 1486 1486 1487 1487 1487 1490 1491 1491 1490 1484 1477 1471 1463 1455 1444 1438 1438 1439 1443 1446 1447 1450 1453 1453 1453 1452 1451 1451 1449
1494 1494 1494 1494 1496 1497 1500 1504 1507 1508 1506 1501 1498 1497 1494 1493 1493 1493 1495 1496 1497 1499 1499 1499 1499 1498 1495 1494 1495 1495 1497 1497 1495 1496 1493 1490 1486 1480 1479 1479 1479 1482 1483 1484 1485 1486 1487 1489 1484 1479 1482 1482 1479 1478 1477 1475 1479 1484 1485 1485 1485 1485 1486 1486 1484 1482 1482 1482 1478 1474 1468 1456 1445 1438 1437 1439 1443 1448 1450 1451 1454 1457 1457 1456 1455 1453 1452 1452
1492 1493 1493 1493 1494 1495 1498 1503 1503 1502 1500 1497 1494 1493 1493 1493 1492 1491 1493 1495 1495 1495 1496 1496 1497 1497 1496 1496 1495 1494 1496 1496 1493 1494 1493 1488 1487 1483 1479 1478 1478 1480 1483 1484 1485 1486 1486 1487 1483 1479 1480 1478 1471 1469 1469 1469 1470 1474 1477 1477 1478 1479 1484 1489 1484 1474 1473 1475 1471 1470 1463 1450 1441 1438 1437 1441 1448 1452 1453 1452 1455 1458 1458 1456 1455 1454 1453 1452
1491 1492 1492 1492 1493 1494 1496 1499 1498 1497 1497 1495 1492 1492 1492 1491 1490 1491 1492 1493 1494 1494 1494 1495 1495 1495 1496 1496 1495 1494 1496 1495 1492 1492 1491 1487 1485 1483 1479 1478 1478 1478 1480 1482 1481 1481 1482 1485 1484 1479 1474 1471 1467 1467 1469 1469 1469 1471 1473 1472 1473 1473 1477 1483 1479 1471 1470 1470 1466 1467 1463 1449 1440 1439 1439 1443 1450 1454 1454 1453 1455 1456 1456 1455 1454 1453 1451 1450
1490 1491 1491 1492 1493 1494 1496 1496 1495 1495 1495 1491 1490 1491 1492 1491 1490 1490 1491 1492 1494 1494 1494 1494 1493 1494 1493 1492 1492 1493 1493 1493 1490 1487 1487 1485 1482 1482 1480 1480 1480 1479 1480 1482 1480 1479 1480 1482 1481 1477 1472 1469 1467 1466 1469 1471 1472 1472 1471 1471 1472 1471 1469 1470 1470 1469 1471 1469 1466 1467 1461 1448 1440 1441 1444 1450 1453 1454 1455 1455 1456 1455 1454 1454 1453 1451 1450 1448
1489 1490 1490 1491 1492 1493 1494 1493 1492 1493 1492 1491 1491 1491 1490 1491 1490 1489 1490 1492 1492 1493 1494 1494 1492 1492 1492 1491 1492 1493 1494 1494 1489 1484 1486 1486 1483 1482 1481 1480 1481 1481 1483 1485 1483 1483 1483 1480 1478 1479 1477 1474 1471 1468 1469 1472 1473 1472 1470 1468 1469 1469 1468 1468 1470 1472 1472 1467 1464 1464 1456 1445 1442 1444 1447 1453 1454 1455 1457 1457 1457 1456 1455 1454 1453 1451 1450 1448
1488 1489 1489 1490 1490 1491 1490 1489 1490 1492 1491 1491 1491 1490 1490 1490 1487 1487 1489 1490 1490 1492 1493 1492 1491 1491 1492 1492 1493 1493 1493 1494 1492 1488 1488 1488 1485 1483 1482 1482 1482 1482 1483 1484 1483 1484 1486 1483 1480 1480 1478 1475 1472 1469 1468 1471 1474 1474 1471 1469 1469 1470 1471 1472 1473 1473 1468 1460 1457 1459 1452 1445 1443 1443 1446 1452 1455 1457 1458 1458 1457 1457 1456 1455 1454 1453 1451 1449
1488 1489 1489 1489 1489 1489 1488 1488 1490 1490 1490 1492 1491 1489 1489 1488 1486 1486 1488 1488 1488 1489 1489 1490 1490 1491 1492 1492 1492 1491 1490 1490 1491 1489 1487 1487 1485 1483 1483 1483 1483 1483 1483 1483 1482 1483 1486 1485 1482 1480 1477 1473 1471 1468 1468 1473 1476 1475 1472 1471 1472 1472 1472 1475 1475 1469 1463 1458 1454 1451 1448 1446 1445 1445 1446 1450 1454 1457 1458 1458 1458 1457 1457 1456 1455 1454 1453 1452
1487 1488 1488 1489 1489 1488 1488 1489 1490 1489 1490 1491 1490 1487 1486 1486 1486 1486 1486 1486 1486 1486 1487 1487 1487 1489 1490 1489 1490 1489 1486 1486 1488 1488 1486 1486 1484 1484 1484 1483 1483 1483 1482 1483 1483 1484 1485 1483 1478 1476 1476 1473 1471 1471 1472 1475 1476 1475 1474 1473 1472 1471 1472 1474 1471 1464 1462 1461 1454 1447 1449 1451 1450 1448 1448 1450 1453 1456 1457 1457 1457 1457 1457 1456 1454 1454 1453 1451
1487 1487 1487 1488 1489 1488 1488 1488 1489 1489 1489 1490 1490 1487 1485 1486 1487 1486 1486 1486 1485 1486 1487 1486 1485 1486 1487 1487 1488 1488 1487 1486 1486 1485 1485 1485 1486 1485 1484 1483 1484 1484 1483 1484 1483 1483 1485 1482 1475 1474 1474 1472 1471 1472 1473 1475 1475 1474 1474 1472 1471 1471 1470 1468 1465 1461 1463 1462 1454 1449 1452 1451 1447 1446 1450 1453 1454 1454 1455 1455 1455 1455 1455 1455 1454 1453 1452 1451
1486 1486 1486 1487 1488 1488 1488 1489 1489 1489 1489 1490 1490 1488 1486 1487 1487 1486 1486 1487 1486 1485 1486 1486 1486 1487 1488 1488 1489 1489 1489 1488 1486 1484 1484 1486 1487 1487 1485 1483 1484 1484 1484 1485 1484 1483 1486 1483 1477 1477 1477 1474 1474 1473 1472 1475 1475 1473 1473 1472 1470 1468 1465 1463 1461 1459 1460 1457 1452 1451 1450 1445 1443 1447 1451 1454 1454 1454 1454 1454 1454 1453 1453 1453 1452 1451 1451 1450
1486 1486 1487 1487 1488 1488 1489 1489 1490 1490 1490 1490 1490 1487 1486 1487 1487 1486 1487 1488 1488 1487 1486 1488 1490 1491 1492 1491 1491 1491 1490 1490 1488 1486 1487 1488 1488 1489 1489 1486 1485 1485 1485 1486 1485 1484 1486 1483 1477 1478 1480 1477 1473 1472 1472 1474 1474 1473 1473 1471 1468 1465 1462 1462 1460 1456 1454 1452 1448 1448 1446 1441 1445 1451 1452 1453 1454 1454 1454 1454 1453 1452 1451 1451 1450 1450 1450 1450
1485 1486 1486 1488 1488 1488 1489 1489 1490 1491 1491 1490 1489 1487 1486 1487 1487 1487 1488 1488 1488 1488 1489 1492 1493 1493 1493 1492 1492 1492 1491 1492 1492 1490 1491 1491 1489 1490 1490 1488 1488 1489 1487 1486 1486 1485 1486 1485 1481 1483 1485 1478 1473 1473 1473 1473 1474 1474 1473 1468 1462 1459 1458 1456 1452 1449 1449 1447 1445 1445 1442 1441 1447 1453 1452 1453 1454 1454 1454 1453 1452 1451 1450 1449 1448 1448 1448 1448
1485 1485 1486 1488 1488 1487 1488 1489 1490 1490 1489 1487 1487 1487 1487 1488 1488 1488 1489 1488 1488 1489 1491 1492 1493 1493 1493 1492 1491 1491 1491 1491 1492 1492 1491 1491 1489 1489 1489 1488 1488 1490 1488 1487 1487 1486 1487 1487 1486 1488 1487 1478 1473 1475 1476 1478 1479 1472 1462 1457 1453 1451 1451 1448 1446 1445 1445 1445 1445 1443 1441 1444 1450 1453 1452 1453 1453 1453 1452 1451 1449 1448 1447 1447 1447 1446 1445 1444